User: anonymous   Login
Location: Unspecified
(0.0000°N, 0.0000°E)
Time: 20:09:20
(UTC+00:00)
Language:

STARLINK-32425 - Orbit

View from above orbital plane
View from above orbital plane
View from above satellite
View from above satellite

Ground track
Ground track

The orbit is defined by the following mean orbital elements,

1 61216U          26145.21620014 +.00000000 +00000-0 +13227-4 0 00002
2 61216  53.1603 327.0881 0001523  90.7173 269.4003 15.30190605    07
Epoch (UTC): 25 May 2026 05:11:19
Eccentricity: 0.0001523
inclination: 53.1603°
perigee height: 474 km
apogee height: 476 km
right ascension of ascending node: 327.0881°
argument of perigee: 90.7173°
revolutions per day: 15.30190605
mean anomaly at epoch: 269.4003°

The dashed part of the orbit path shows where the satellite is in the earth's shadow,  

DLR